Time,TemperatureF,DewpointF,PressureIn,WindDirection,WindDirectionDegrees,WindSpeedMPH,WindSpeedGustMPH,Humidity,HourlyPrecipIn,Conditions,Clouds,dailyrainin,SoftwareType,DateUTC
2013-04-07 00:09:00,64.2,37.4,29.70,SW,236,10.7,17.4,37,0.16,,OVC060,0.00,VWS V14.00,2013-04-07 05:09:00,
2013-04-07 00:19:00,64.2,37.4,29.70,WSW,243,15.2,25.5,37,0.16,,OVC060,0.00,VWS V14.00,2013-04-07 05:19:00,
2013-04-07 00:29:00,64.2,37.4,29.70,West,263,17.4,23.7,37,0.16,,OVC026,0.00,VWS V14.00,2013-04-07 05:29:00,
2013-04-07 00:39:00,64.2,37.4,29.70,SW,228,12.5,24.6,37,0.16,,OVC026,0.00,VWS V14.00,2013-04-07 05:39:00,
2013-04-07 00:49:00,64.2,37.4,29.70,West,263,16.1,25.5,37,0.16,,OVC026,0.00,VWS V14.00,2013-04-07 05:49:00,
2013-04-07 00:59:00,64.2,37.4,29.70,West,260,21.9,21.9,37,0.00,,OVC026,0.00,VWS V14.00,2013-04-07 05:59:00,
2013-04-07 01:19:00,51.3,47.2,29.70,West,267,14.3,26.4,86,0.00,,OVC026,0.00,VWS V14.00,2013-04-07 06:19:00,
2013-04-07 01:30:00,50.5,46.2,29.72,West,280,15.2,24.6,85,0.00,,OVC026,0.00,VWS V14.00,2013-04-07 06:30:00,
2013-04-07 01:40:00,50.4,46.0,29.72,WNW,294,19.2,26.4,85,0.00,,OVC014,0.00,VWS V14.00,2013-04-07 06:40:00,
2013-04-07 01:49:00,49.8,45.2,29.72,WSW,244,11.6,21.0,84,0.00,,OVC014,0.00,VWS V14.00,2013-04-07 06:49:00,
2013-04-07 01:59:00,49.8,44.9,29.72,WNW,287,17.4,20.1,83,0.00,,OVC014,0.00,VWS V14.00,2013-04-07 06:59:00,
2013-04-07 02:09:00,49.5,44.5,29.72,WNW,283,19.2,20.1,83,0.00,,OVC015,0.00,VWS V14.00,2013-04-07 07:09:00,
2013-04-07 02:29:00,48.9,44.6,29.75,WNW,285,15.2,20.1,85,0.00,,OVC015,0.00,VWS V14.00,2013-04-07 07:29:00,
2013-04-07 02:39:00,48.9,44.6,29.75,WNW,283,16.1,26.4,85,0.00,,OVC015,0.00,VWS V14.00,2013-04-07 07:39:00,
2013-04-07 02:49:00,48.4,43.5,29.75,West,263,13.4,21.9,83,0.00,,OVC013,0.00,VWS V14.00,2013-04-07 07:49:00,
2013-04-07 02:59:00,48.4,43.5,29.75,West,267,17.4,25.5,83,0.00,,OVC013,0.00,VWS V14.00,2013-04-07 07:59:00,
2013-04-07 03:09:00,48.4,43.5,29.75,West,270,16.6,21.0,83,0.00,,OVC015,0.00,VWS V14.00,2013-04-07 08:09:00,
2013-04-07 03:19:00,48.4,43.5,29.75,WSW,251,11.6,21.0,83,0.00,,OVC015,0.00,VWS V14.00,2013-04-07 08:19:00,
2013-04-07 03:29:00,48.4,43.5,29.78,WNW,299,12.5,17.4,83,0.00,,OVC019,0.00,VWS V14.00,2013-04-07 08:29:00,
2013-04-07 03:39:00,47.8,42.9,29.78,West,267,12.5,20.1,83,0.00,,OVC019,0.00,VWS V14.00,2013-04-07 08:39:00,
2013-04-07 03:49:00,47.7,42.4,29.78,WNW,291,16.1,21.0,82,0.00,,OVC019,0.00,VWS V14.00,2013-04-07 08:49:00,
2013-04-07 03:59:00,47.5,42.3,29.78,West,270,10.7,16.6,82,0.00,,OVC021,0.00,VWS V14.00,2013-04-07 08:59:00,
2013-04-07 04:09:00,47.3,42.1,29.78,West,270,12.5,17.4,82,0.00,,OVC021,0.00,VWS V14.00,2013-04-07 09:09:00,
2013-04-07 04:19:00,47.3,42.1,29.78,WSW,249,12.5,25.5,82,0.00,,OVC021,0.00,VWS V14.00,2013-04-07 09:19:00,
2013-04-07 04:39:00,47.3,42.1,29.78,WSW,255,11.6,20.1,82,0.00,,OVC019,0.00,VWS V14.00,2013-04-07 09:39:00,
2013-04-07 04:49:00,47.3,42.1,29.78,West,276,13.4,20.1,82,0.00,,OVC019,0.00,VWS V14.00,2013-04-07 09:49:00,
2013-04-07 04:59:00,47.3,42.1,29.81,WSW,258,11.6,16.6,82,0.00,,OVC019,0.00,VWS V14.00,2013-04-07 09:59:00,
2013-04-07 05:09:00,44.8,39.9,29.81,West,275,10.7,16.1,83,0.00,,OVC019,0.00,VWS V14.00,2013-04-07 10:09:00,
2013-04-07 05:28:00,43.7,39.2,29.81,West,270,12.5,20.1,84,0.00,,OVC019,0.00,VWS V14.00,2013-04-07 10:28:00,
2013-04-07 05:38:00,43.2,39.0,29.81,WSW,248,9.8,16.6,85,0.00,,OVC017,0.00,VWS V14.00,2013-04-07 10:38:00,
2013-04-07 05:49:00,43.2,39.0,29.84,West,280,11.6,13.4,85,0.00,,OVC017,0.00,VWS V14.00,2013-04-07 10:49:00,
2013-04-07 06:00:00,42.8,38.6,29.84,West,270,7.2,17.4,85,0.00,,OVC015,0.00,VWS V14.00,2013-04-07 11:00:00,
2013-04-07 06:10:00,42.3,38.1,29.87,WSW,253,15.2,17.4,85,0.00,,OVC015,0.00,VWS V14.00,2013-04-07 11:10:00,
2013-04-07 06:20:00,41.9,37.7,29.87,West,276,8.9,16.6,85,0.00,,OVC015,0.00,VWS V14.00,2013-04-07 11:20:00,
2013-04-07 06:30:00,41.9,37.7,29.87,WNW,291,10.7,17.4,85,0.00,,OVC015,0.00,VWS V14.00,2013-04-07 11:30:00,
2013-04-07 06:39:00,41.5,37.4,29.87,West,267,9.8,17.4,85,0.00,,OVC015,0.00,VWS V14.00,2013-04-07 11:39:00,
2013-04-07 06:49:00,41.5,37.4,29.87,West,267,11.6,13.4,85,0.00,,OVC015,0.00,VWS V14.00,2013-04-07 11:49:00,
2013-04-07 06:59:00,41.0,37.1,29.90,WSW,248,10.7,15.2,86,0.00,,OVC015,0.00,VWS V14.00,2013-04-07 11:59:00,
2013-04-07 07:09:00,41.2,37.3,29.90,SW,235,10.7,17.4,86,0.00,,,0.00,VWS V14.00,2013-04-07 12:09:00,
2013-04-07 07:19:00,41.2,37.3,29.90,West,263,10.7,12.5,86,0.00,,,0.00,VWS V14.00,2013-04-07 12:19:00,
2013-04-07 07:29:00,41.2,37.3,29.90,West,273,8.1,12.5,86,0.00,,,0.00,VWS V14.00,2013-04-07 12:29:00,
2013-04-07 07:39:00,41.2,37.3,29.90,WSW,251,7.2,12.5,86,0.00,,,0.00,VWS V14.00,2013-04-07 12:39:00,
2013-04-07 07:49:00,41.2,37.3,29.90,West,271,9.8,12.5,86,0.00,,,0.00,VWS V14.00,2013-04-07 12:49:00,
2013-04-07 07:59:00,41.9,37.7,29.93,WNW,291,6.3,12.5,85,0.00,,,0.00,VWS V14.00,2013-04-07 12:59:00,
2013-04-07 08:09:00,41.9,37.7,29.93,NW,320,6.3,12.5,85,0.00,,OVC013,0.00,VWS V14.00,2013-04-07 13:09:00,
2013-04-07 08:19:00,42.1,37.3,29.93,WNW,299,7.2,14.3,83,0.00,,OVC013,0.00,VWS V14.00,2013-04-07 13:19:00,
2013-04-07 08:39:00,42.3,37.5,29.93,WNW,288,8.1,12.5,83,0.00,,OVC013,0.00,VWS V14.00,2013-04-07 13:39:00,
2013-04-07 08:49:00,42.4,37.3,29.93,WNW,287,8.1,16.6,82,0.00,,OVC013,0.00,VWS V14.00,2013-04-07 13:49:00,
2013-04-07 08:59:00,42.6,37.2,29.93,NNW,337,9.8,11.6,81,0.00,,OVC013,0.00,VWS V14.00,2013-04-07 13:59:00,
2013-04-07 09:09:00,42.8,37.1,29.93,West,272,9.8,12.5,80,0.00,,OVC013,0.00,VWS V14.00,2013-04-07 14:09:00,
2013-04-07 09:19:00,42.6,37.2,29.96,NNW,337,9.8,12.5,81,0.00,,OVC013,0.00,VWS V14.00,2013-04-07 14:19:00,
2013-04-07 09:29:00,42.6,37.2,29.96,WNW,291,12.5,12.5,81,0.00,,OVC013,0.00,VWS V14.00,2013-04-07 14:29:00,
2013-04-07 09:39:00,42.6,37.2,29.96,WNW,300,8.1,12.5,81,0.00,,OVC013,0.00,VWS V14.00,2013-04-07 14:39:00,
2013-04-07 09:49:00,43.5,37.1,29.96,WNW,285,5.4,11.6,78,0.00,,BKN013,0.00,VWS V14.00,2013-04-07 14:49:00,
2013-04-07 10:00:00,43.7,37.3,29.96,SW,231,7.2,12.5,78,0.00,,BKN015,0.00,VWS V14.00,2013-04-07 15:00:00,
2013-04-07 10:10:00,45.3,38.5,29.96,WNW,303,11.6,16.1,77,0.00,,BKN015,0.00,VWS V14.00,2013-04-07 15:10:00,
2013-04-07 10:19:00,46.0,38.9,29.96,WSW,250,6.3,16.6,76,0.00,,BKN015,0.00,VWS V14.00,2013-04-07 15:19:00,
2013-04-07 10:39:00,46.9,39.1,29.99,NNW,335,5.4,12.5,74,0.00,,SCT015,0.00,VWS V14.00,2013-04-07 15:39:00,
2013-04-07 10:49:00,47.3,39.5,29.99,WNW,291,10.7,15.2,74,0.00,,SCT017,0.00,VWS V14.00,2013-04-07 15:49:00,
2013-04-07 10:59:00,48.2,40.0,29.99,NNW,339,7.2,12.5,73,0.00,,SCT017,0.00,VWS V14.00,2013-04-07 15:59:00,
2013-04-07 11:09:00,49.1,40.5,29.99,WNW,289,8.1,12.5,72,0.00,,SCT017,0.00,VWS V14.00,2013-04-07 16:09:00,
2013-04-07 11:19:00,49.1,39.8,29.99,West,267,6.3,12.5,70,0.00,,SCT017,0.00,VWS V14.00,2013-04-07 16:19:00,
2013-04-07 11:29:00,49.5,39.7,29.99,NW,314,7.2,11.6,69,0.00,,CLR,0.00,VWS V14.00,2013-04-07 16:29:00,
2013-04-07 11:39:00,50.5,40.4,29.99,WNW,284,8.1,13.4,68,0.00,,CLR,0.00,VWS V14.00,2013-04-07 16:39:00,
2013-04-07 11:49:00,51.3,40.3,29.99,WSW,237,6.3,11.6,66,0.00,,CLR,0.00,VWS V14.00,2013-04-07 16:49:00,
2013-04-07 11:59:00,52.2,41.2,29.99,SW,215,4.5,15.2,66,0.00,,CLR,0.00,VWS V14.00,2013-04-07 16:59:00,
2013-04-07 12:09:00,52.7,41.3,29.99,NW,326,10.7,12.5,65,0.00,,CLR,0.00,VWS V14.00,2013-04-07 17:09:00,
2013-04-07 12:19:00,53.6,41.3,29.99,West,276,8.1,12.5,63,0.00,,CLR,0.00,VWS V14.00,2013-04-07 17:19:00,
2013-04-07 12:29:00,54.5,41.8,29.99,South,188,5.4,15.2,62,0.00,,CLR,0.00,VWS V14.00,2013-04-07 17:29:00,
2013-04-07 12:49:00,55.0,39.7,29.99,West,267,5.4,16.6,56,0.00,,CLR,0.00,VWS V14.00,2013-04-07 17:49:00,
2013-04-07 13:00:00,55.8,40.3,29.96,West,270,7.2,12.5,56,0.00,,CLR,0.00,VWS V14.00,2013-04-07 18:00:00,
2013-04-07 13:09:00,56.1,40.7,29.96,NW,320,7.2,15.2,56,0.00,,CLR,0.00,VWS V14.00,2013-04-07 18:09:00,
2013-04-07 13:19:00,57.2,40.7,29.96,WSW,254,7.2,11.6,54,0.00,,CLR,0.00,VWS V14.00,2013-04-07 18:19:00,
2013-04-07 13:30:00,57.2,40.2,29.96,NNW,333,10.7,11.6,53,0.00,,CLR,0.00,VWS V14.00,2013-04-07 18:30:00,
2013-04-07 13:39:00,57.4,39.9,29.96,WSW,252,6.3,12.5,52,0.00,,CLR,0.00,VWS V14.00,2013-04-07 18:39:00,
2013-04-07 13:49:00,57.4,39.4,29.96,WSW,255,7.2,12.5,51,0.00,,CLR,0.00,VWS V14.00,2013-04-07 18:49:00,
2013-04-07 13:59:00,58.1,40.6,29.96,WNW,286,7.2,8.1,52,0.00,,CLR,0.00,VWS V14.00,2013-04-07 18:59:00,
2013-04-07 14:09:00,58.5,39.9,29.96,South,176,8.1,15.2,50,0.00,,CLR,0.00,VWS V14.00,2013-04-07 19:09:00,
2013-04-07 14:19:00,59.2,40.6,29.96,SW,222,6.3,16.1,50,0.00,,CLR,0.00,VWS V14.00,2013-04-07 19:19:00,
2013-04-07 14:29:00,59.0,39.9,29.96,WSW,251,8.1,12.5,49,0.00,,CLR,0.00,VWS V14.00,2013-04-07 19:29:00,
2013-04-07 14:39:00,59.5,40.4,29.96,SW,236,5.4,12.5,49,0.00,,CLR,0.00,VWS V14.00,2013-04-07 19:39:00,
2013-04-07 14:49:00,59.7,40.5,29.96,NW,314,8.1,12.5,49,0.00,,CLR,0.00,VWS V14.00,2013-04-07 19:49:00,
2013-04-07 14:59:00,60.1,40.9,29.96,West,278,5.4,12.5,49,0.00,,CLR,0.00,VWS V14.00,2013-04-07 19:59:00,
2013-04-07 15:09:00,60.4,40.7,29.96,SSW,207,0.0,10.7,48,0.00,,CLR,0.00,VWS V14.00,2013-04-07 20:09:00,
2013-04-07 15:19:00,61.0,41.2,29.96,WNW,297,0.0,8.1,48,0.00,,CLR,0.00,VWS V14.00,2013-04-07 20:19:00,
2013-04-07 15:29:00,61.0,41.2,29.96,SW,226,5.4,8.9,48,0.00,,CLR,0.00,VWS V14.00,2013-04-07 20:29:00,
2013-04-07 15:49:00,62.2,41.2,29.96,SW,222,8.1,12.5,46,0.00,,CLR,0.00,VWS V14.00,2013-04-07 20:49:00,
2013-04-07 15:59:00,61.3,41.0,29.96,NW,324,0.0,12.5,47,0.00,,CLR,0.00,VWS V14.00,2013-04-07 20:59:00,
2013-04-07 16:19:00,63.0,41.3,29.96,West,270,7.2,10.7,45,0.00,,CLR,0.00,VWS V14.00,2013-04-07 21:19:00,
2013-04-07 16:29:00,61.2,40.2,29.96,NW,305,0.0,12.5,46,0.00,,CLR,0.00,VWS V14.00,2013-04-07 21:29:00,
2013-04-07 16:39:00,61.9,41.5,29.96,SE,141,7.2,10.7,47,0.00,,CLR,0.00,VWS V14.00,2013-04-07 21:39:00,
2013-04-07 17:00:00,62.4,41.4,29.96,SE,144,0.0,5.4,46,0.00,,CLR,0.00,VWS V14.00,2013-04-07 22:00:00,
2013-04-07 17:09:00,62.2,40.7,29.96,WSW,252,5.4,8.1,45,0.00,,CLR,0.00,VWS V14.00,2013-04-07 22:09:00,
2013-04-07 17:29:00,62.2,41.2,29.96,SE,127,4.5,8.9,46,0.00,,CLR,0.00,VWS V14.00,2013-04-07 22:29:00,
2013-04-07 17:39:00,62.1,41.1,29.96,ESE,114,0.0,8.1,46,0.00,,CLR,0.00,VWS V14.00,2013-04-07 22:39:00,
2013-04-07 17:49:00,61.9,40.9,29.96,ESE,114,0.0,0.0,46,0.00,,CLR,0.00,VWS V14.00,2013-04-07 22:49:00,
2013-04-07 17:59:00,62.2,41.2,29.96,SSE,158,6.3,8.1,46,0.00,,CLR,0.00,VWS V14.00,2013-04-07 22:59:00,
2013-04-07 18:09:00,63.1,41.5,29.93,East,81,6.3,12.5,45,0.00,,CLR,0.00,VWS V14.00,2013-04-07 23:09:00,
2013-04-07 18:19:00,63.7,42.0,29.93,East,101,0.0,8.1,45,0.00,,CLR,0.00,VWS V14.00,2013-04-07 23:19:00,
2013-04-07 18:29:00,63.9,42.1,29.93,SE,143,7.2,9.8,45,0.00,,CLR,0.00,VWS V14.00,2013-04-07 23:29:00,
2013-04-07 18:39:00,63.9,41.5,29.93,ESE,109,4.5,8.1,44,0.00,,CLR,0.00,VWS V14.00,2013-04-07 23:39:00,
2013-04-07 18:49:00,63.7,41.4,29.93,ESE,108,0.0,7.2,44,0.00,,CLR,0.00,VWS V14.00,2013-04-07 23:49:00,
2013-04-07 19:09:00,62.2,41.2,29.93,East,93,6.3,8.1,46,0.00,,CLR,0.00,VWS V14.00,2013-04-08 00:09:00,
2013-04-07 19:19:00,60.8,40.5,29.93,East,89,0.0,6.3,47,0.00,,CLR,0.00,VWS V14.00,2013-04-08 00:19:00,
2013-04-07 19:29:00,59.2,40.0,29.93,East,79,0.0,0.0,49,0.00,,CLR,0.00,VWS V14.00,2013-04-08 00:29:00,
2013-04-07 19:39:00,56.5,38.6,29.93,East,92,11.6,17.4,51,0.00,,CLR,0.00,VWS V14.00,2013-04-08 00:39:00,
2013-04-07 19:49:00,55.4,38.1,29.93,ENE,77,9.8,12.5,52,0.00,,CLR,0.00,VWS V14.00,2013-04-08 00:49:00,
2013-04-07 19:59:00,52.9,37.2,29.96,NE,37,9.8,16.1,55,0.00,,CLR,0.00,VWS V14.00,2013-04-08 00:59:00,
2013-04-07 20:09:00,52.9,37.2,29.96,ESE,102,15.2,17.4,55,0.00,,CLR,0.00,VWS V14.00,2013-04-08 01:09:00,
2013-04-07 20:29:00,49.6,35.9,29.96,ENE,69,5.4,12.5,59,0.00,,CLR,0.00,VWS V14.00,2013-04-08 01:29:00,
2013-04-07 20:39:00,49.1,36.2,29.96,NE,45,6.3,12.5,61,0.00,,CLR,0.00,VWS V14.00,2013-04-08 01:39:00,
2013-04-07 20:48:00,49.1,36.2,29.96,ENE,57,10.7,12.5,61,0.00,,CLR,0.00,VWS V14.00,2013-04-08 01:48:00,
2013-04-07 21:00:00,46.6,35.1,29.96,NE,54,9.8,16.1,64,0.00,,CLR,0.00,VWS V14.00,2013-04-08 02:00:00,
2013-04-07 21:10:00,45.9,34.8,29.96,ENE,57,10.7,15.2,65,0.00,,CLR,0.00,VWS V14.00,2013-04-08 02:10:00,
2013-04-07 21:19:00,45.3,34.6,29.96,ENE,72,11.6,13.4,66,0.00,,CLR,0.00,VWS V14.00,2013-04-08 02:19:00,
2013-04-07 21:29:00,45.3,34.6,29.96,NE,42,12.5,16.6,66,0.00,,CLR,0.00,VWS V14.00,2013-04-08 02:29:00,
2013-04-07 21:49:00,45.3,34.6,29.96,ENE,71,8.1,17.4,66,0.00,,CLR,0.00,VWS V14.00,2013-04-08 02:49:00,
2013-04-07 21:59:00,43.3,34.2,29.96,NE,39,10.7,11.6,70,0.00,,CLR,0.00,VWS V14.00,2013-04-08 02:59:00,
2013-04-07 22:09:00,43.0,33.9,29.96,ENE,77,8.1,12.5,70,0.00,,CLR,0.00,VWS V14.00,2013-04-08 03:09:00,
2013-04-07 22:19:00,42.8,33.7,29.96,NE,53,10.7,16.6,70,0.00,,CLR,0.00,VWS V14.00,2013-04-08 03:19:00,
2013-04-07 22:29:00,42.4,33.7,29.96,NE,40,8.1,13.4,71,0.00,,CLR,0.00,VWS V14.00,2013-04-08 03:29:00,
2013-04-07 22:39:00,42.1,33.4,29.96,ENE,61,6.3,18.3,71,0.00,,CLR,0.00,VWS V14.00,2013-04-08 03:39:00,
2013-04-07 22:49:00,41.9,33.5,29.96,ENE,71,6.3,11.6,72,0.00,,CLR,0.00,VWS V14.00,2013-04-08 03:49:00,
2013-04-07 22:59:00,41.7,33.4,29.93,ESE,102,7.2,16.1,72,0.00,,CLR,0.00,VWS V14.00,2013-04-08 03:59:00,
2013-04-07 23:09:00,41.5,33.2,29.93,NE,36,10.7,11.6,72,0.00,,CLR,0.00,VWS V14.00,2013-04-08 04:09:00,
2013-04-07 23:19:00,41.4,33.4,29.93,NE,41,6.3,11.6,73,0.00,,CLR,0.00,VWS V14.00,2013-04-08 04:19:00,
2013-04-07 23:29:00,41.4,33.4,29.93,NE,39,9.8,16.1,73,0.00,,CLR,0.00,VWS V14.00,2013-04-08 04:29:00,
2013-04-07 23:39:00,41.4,33.4,29.93,ENE,76,12.5,12.5,73,0.00,,CLR,0.00,VWS V14.00,2013-04-08 04:39:00,
2013-04-07 23:59:00,41.4,33.4,29.90,NE,40,9.8,13.4,73,0.00,,CLR,0.00,VWS V14.00,2013-04-08 04:59:00,